Regional Weather Roundup
Issued by NWS

Home | Current Version | Previous Version | Text Only | Print | Product List | Glossary Off
Versions: 1 2 3 4 5 6 7 8 9 10 11 12 13 14 15 16 17 18 19 20 21 22 23 24 25 26 27 28 29 30 31 32 33 34 35 36 37 38 39 40 41 42 43 44 45 46 47 48 49 50

000
ASUS43 KIND 311659
RWRIN

WEATHER ROUNDUP FOR INDIANA
NATIONAL WEATHER SERVICE INDIANAPOLIS IN
100 PM EDT MON AUG 31 2015

NOTE: "FAIR" INDICATES FEW OR NO CLOUDS BELOW 12,000 FEET WITH NO
SIGNIFICANT WEATHER AND/OR OBSTRUCTIONS TO VISIBILITY.

* - STATION DOES NOT REPORT WEATHER SUCH AS PRECIPITATION OR FOG.

+ - STATION NOT QUALITY CONTROLLED BY THE NATIONAL WEATHER SERVICE.
    USE DATA WITH CAUTION...ESPECIALLY DEWPOINT AND RELATIVE
    HUMIDITY OBSERVATIONS.

INZ001>003-010>013-019-020-311800-
NORTHWEST INDIANA

CITY           SKY/WX    TMP DP  RH WIND       PRES   REMARKS
GARY /AIRPORT/ MOSUNNY   81  66  61 CALM      30.09F
KNOX *+        MOSUNNY   77  73  88 CALM      30.09F
MONTICELLO +   MOSUNNY   81  73  77 SW6       30.09F
RENSSELAER +   PTSUNNY   82  73  74 S6        30.09F

$$

LMZ046-743>745-311800-
SOUTHERN LAKE MICHIGAN

STATION/POSITION TIME  TEMP    WIND        PRES    WAVE
                       AIR SEA DIR/SP/G            HT
                 (UTC) (F)     (DEG/KT/KT) (MB)    (FT)
BURNS HARBOR     1600   73     350/  2/  3 1019.6S

$$

INZ004-005-014>016-021>024-311800-
NORTH CENTRAL INDIANA

CITY           SKY/WX    TMP DP  RH WIND       PRES   REMARKS
ELKHART        MOSUNNY   79  68  69 CALM      30.11F
GOSHEN         MOSUNNY   81  70  69 CALM      30.10F
PERU/GRISSOM   MOSUNNY   84  70  63 SW7       30.10F HAZE
SOUTH BEND     MOSUNNY   79  69  71 SW6       30.11S
WARSAW +       MOSUNNY   81  68  65 SW3       30.11S

$$

INZ006>009-017-018-025>027-311800-
NORTHEAST INDIANA

CITY           SKY/WX    TMP DP  RH WIND       PRES   REMARKS
ANGOLA *+      MOSUNNY   82  70  65 W5        30.11S
FORT WAYNE     MOSUNNY   84  70  62 W7        30.11F

$$

INZ028-029-035-036-043>045-051>053-311800-
WEST CENTRAL INDIANA

CITY           SKY/WX    TMP DP  RH WIND       PRES   REMARKS
CRAWFORDSVL +  SUNNY     81  63  53 S6        30.12S
GREENCASTLE +  MOSUNNY   81  64  57 W8        30.14S
LAFAYETTE      PTSUNNY   84  70  62 SW8       30.10S
TERRE HAUTE    MOSUNNY   81  69  67 SW7       30.12F

$$

INZ030>032-037>040-046>048-054>057-064-065-311800-
CENTRAL INDIANA

CITY           SKY/WX    TMP DP  RH WIND       PRES   REMARKS
ANDERSON       MOSUNNY   81  63  54 CALM      30.14F
FRANKFORT +    MOSUNNY   83  73  70 SW8       30.13F
GREENWOOD *+   PTSUNNY   81  64  57 SW5       30.14F
INDIANAPOLIS   PTSUNNY   84  67  56 SW8       30.13
-EAGLE CREEK   MOSUNNY   84  67  56 S6        30.12S
KOKOMO *+      MOSUNNY   86  70  58 W6        30.11S
MT COMFORT *+  MOSUNNY   84  61  45 SW7       30.13S
SHELBYVILLE    PTSUNNY   83  68  60 VRB3      30.13S

$$

INZ033-034-041-042-049-050-058-059-311800-
EAST CENTRAL INDIANA

CITY           SKY/WX    TMP DP  RH WIND       PRES   REMARKS
MUNCIE         MOSUNNY   81  69  67 VRB7      30.12F

$$

INZ060-061-067>069-081>083-085>088-311800-
SOUTHWEST INDIANA

CITY           SKY/WX    TMP DP  RH WIND       PRES   REMARKS
EVANSVILLE     MOSUNNY   84  67  56 W8        30.14S
HUNTINGBURG *+ CLOUDY    84  70  61 W5        30.15S

$$

INZ062-063-066-070>080-084-089>092-311800-
SOUTH CENTRAL AND SOUTHEAST INDIANA

CITY           SKY/WX    TMP DP  RH WIND       PRES   REMARKS
BLOOMINGTON    MOSUNNY   80  69  69 W6        30.15S
MADISON *+     SUNNY     81  64  57 CALM      30.16F
SEYMOUR +      SUNNY     84  66  54 CALM      30.13F

$$



USA.gov is the U.S. government's official web portal to all federal, state and local government web resources and services.